Location: Houston
(29.7630°N, 95.3630°W)
Time: 08:28:41
(UTC-05:00)

ISS - All Passes

Search period start: 29 April 2017 00:00
Search period end: 09 May 2017 00:00
Orbit: 401 x 409 km, 51.6° (Epoch: 29 April)

Date Brightness Start Highest point End Pass type
(mag) Time Alt. Az. Time Alt. Az. Time Alt. Az.
29 Apr - 06:41:08 10° S 06:43:58 27° SE 06:46:48 10° ENE daylight
29 Apr - 08:18:04 10° W 08:20:27 18° NW 08:22:50 10° N daylight
29 Apr - 14:49:54 10° NNW 14:52:37 24° NE 14:55:20 10° E daylight
29 Apr - 16:26:34 10° W 16:28:59 19° SW 16:31:23 10° S daylight
30 Apr - 05:50:38 10° SSE 05:52:07 13° SE 05:53:36 10° E visible
30 Apr - 07:25:17 10° WSW 07:28:20 36° NW 07:31:22 10° NNE daylight
30 Apr - 13:58:46 10° N 14:00:26 13° NE 14:02:06 10° ENE daylight
30 Apr - 15:33:58 10° WNW 15:37:05 44° SW 15:40:11 10° SSE daylight
01 May - 06:33:01 10° SW 06:36:16 85° NW 06:39:33 10° NE daylight
01 May - 14:41:52 10° NW 14:45:06 72° NE 14:48:20 10° SE daylight
02 May - 05:41:14 10° SSW 05:44:17 38° SE 05:47:22 10° ENE visible
02 May - 07:18:56 10° WNW 07:20:53 15° NW 07:22:51 10° N daylight
02 May - 13:50:04 10° NNW 13:53:01 31° NE 13:55:57 10° ESE daylight
02 May - 15:27:24 10° W 15:29:16 14° SW 15:31:07 10° SSW daylight
03 May - 04:50:11 10° S 04:52:23 17° SE 04:54:35 10° E visible
03 May - 06:25:50 10° WSW 06:28:41 27° NW 06:31:32 10° NNE daylight
03 May - 12:58:39 10° N 13:00:50 16° NE 13:03:00 10° E daylight
03 May - 14:34:25 10° WNW 14:37:21 32° SW 14:40:17 10° SSE daylight
04 May - 05:33:20 10° SW 05:36:33 61° NW 05:39:48 10° NE visible
04 May - 13:42:07 10° NW 13:45:22 81° SW 13:48:37 10° SE daylight
05 May - 04:41:20 10° SSW 04:44:31 53° SE 04:47:43 10° NE visible
05 May - 06:19:52 10° WNW 06:21:13 12° NW 06:22:34 10° N daylight
05 May - 12:50:11 10° NNW 12:53:18 41° NE 12:56:23 10° ESE daylight
05 May - 14:28:41 10° WSW 14:29:26 11° SW 14:30:10 10° SW daylight
06 May - 03:49:54 10° S 03:52:32 23° SE 03:55:11 10° ENE visible
06 May - 05:26:21 10° W 05:28:56 21° NW 05:31:33 10° NNE visible
06 May - 11:58:33 10° NNW 12:01:06 21° NE 12:03:37 10° E daylight
06 May - 13:34:51 10° WNW 13:37:31 23° SW 13:40:10 10° S daylight
07 May - 03:00:08 10° SE 03:00:36 10° SE 03:01:05 10° ESE night (unlit)
07 May - 04:33:36 10° WSW 04:36:45 44° NW 04:39:54 10° NNE visible
07 May - 11:07:37 10° NNE 11:08:47 11° NE 11:09:58 10° NE daylight
07 May - 12:42:19 10° NW 12:45:30 56° SW 12:48:41 10° SSE daylight
08 May - 03:41:22 10° SW 03:44:38 76° SE 03:47:54 10° NE visible
08 May - 11:50:13 10° NW 11:53:25 57° NE 11:56:37 10° SE daylight
